World > North America > United States > North Dakota

Marmarth, North Dakota Regional Weather

Lat: 46.30N, Lon: 103.92W
Wx Zone: NDZ040Web Search

Pass this page to a friend. Tell them to point their camera at the QR Code near the bottom of this page.

Feedback


°F Click to change Marmarth hourly weather to Imperial units.Click to change Marmarth hourly weather to Metric units. °C
Marmarth Weather Map
UTC Time: 5/16/2021, 23:57
Your Time:

Marmarth, ND Regional Weather

Expires:202105170000;;227138
ASUS43 KBIS 162310
RWRND 

NORTH DAKOTA REGIONAL WEATHER ROUNDUP
NATIONAL WEATHER SERVICE BISMARCK ND
600 PM CDT SUN MAY 16 2021

NOTE: "FAIR" INDICATES FEW OR NO CLOUDS BELOW 12,000 FEET WITH NO
SIGNIFICANT WEATHER AND/OR OBSTRUCTIONS TO VISIBILITY.



NDZ018>021-031>035-040>046-170000-
SOUTHWEST NORTH DAKOTA
  
CITY           SKY/WX    TMP DP  RH WIND       PRES   REMARKS
BISMARCK       SUNNY     79  44  28 S17G28    29.96F                  
DICKINSON      MOSUNNY   75  36  24 W5        29.93F                  
GARRISON         N/A     82  39  21 S10       29.92S                  
HETTINGER ARPT MOSUNNY   72  43  35 E7        29.97F                  
$$
 

SKY/WX - Weather  TMP - Temperature  DP - Dew Point  RH - Relative Humidity
WIND - Wind Direction/Speed PRES - Barometric Pressure VSB - Visibility
WCI - Wind Chill Index E13G22 Wind - East Wind 13 mph/Gusts of 22 mph